Regional Weather Roundup
Issued by NWS

Home | Current Version | Previous Version | Graphics & Text | Print | Product List | Glossary On
Versions: 1 2 3 4 5 6 7 8 9 10 11 12 13 14 15 16 17 18 19 20 21 22 23 24 25 26 27 28 29 30 31 32 33 34 35 36 37 38 39 40 41 42 43 44 45 46 47 48 49 50
000
ASUS45 KTFX 261404
RWRMT
MONTANA HOURLY WEATHER ROUNDUP
NATIONAL WEATHER SERVICE GREAT FALLS MT
804 AM MDT SAT JUL 26 2014

NOTE: "FAIR" INDICATES FEW OR NO CLOUDS BELOW 12000 FEET WITH NO
SIGNIFICANT WEATHER AND/OR OBSTRUCTIONS TO VISIBILITY.

* THESE STATIONS ARE NOT UNDER NWS QUALITY CONTROL. THEY DO NOT
   REPORT WEATHER SUCH AS PRECIPITATION OR FOG.

MTZ001>007-043-261500-
WEST OF THE DIVIDE
CITY           SKY/WX    TMP DP  RH WIND       PRES   REMARKS
KALISPELL      SUNNY     54  48  80 CALM      30.18R
MISSOULA       SUNNY     54  41  62 SE5       30.22R
BUTTE          SUNNY     45  30  56 CALM      30.28R
MULLAN PASS    SUNNY     54  36  51 CALM      30.27R
* ESSEX        N/A       46  42  86 E4         N/A
* LINCOLN      N/A       40  37  89 E1         N/A
* LOOKOUT PASS N/A       46  41  83 S2         N/A
* POLSON       N/A       51  43  74 N/A        N/A
* RONAN APT    SUNNY     45  43  93 N/A        N/A
* SEELEY LAKE  N/A       35  33  92 N/A        N/A
* THOMP F APT  SUNNY     57  26  30 NW7G17     N/A
$$

MTZ008-052>055-261500-
SOUTHWEST MONTANA
CITY           SKY/WX    TMP DP  RH WIND       PRES   REMARKS
BOZEMAN        SUNNY     54  39  57 SE5       30.23R
DILLON         SUNNY     52  34  50 S8        30.24R
W YELLOWSTONE  SUNNY     43  32  65 CALM      30.32R
* THREE FORKS  SUNNY     48  48 100 N/A        N/A
* BOULDER HILL N/A       53  33  47 SW7        N/A
* MONIDA PASS  N/A       47  26  44 NW2        N/A
* RAYNOLDS PAS N/A       41  26  55 N/A        N/A
* WHITEHALL    N/A       46  36  68 SW2G7      N/A
* WISE RIVER   N/A       38  31  76 W4         N/A
$$

MTZ009>010-012-014-046-048-049-054-261500-
EAST SLOPES AND CENTRAL MONTANA
CITY           SKY/WX    TMP DP  RH WIND       PRES   REMARKS
CUT BANK       SUNNY     52  45  77 CALM      30.17R
GREAT FALLS    SUNNY     61  39  44 SW5       30.15R
HELENA         SUNNY     61  39  44 CALM      30.19R
* CONRAD       SUNNY     48  48 100 N/A        N/A
* DEARBORN     N/A       53  39  59 S3         N/A
* EAST GLACIER N/A       56  40  55 W6         N/A
* MONARCH      N/A       50  35  57 S4         N/A
* SAINT MARY   N/A       55  39  55 S6G13      N/A
* SWEET GRASS  N/A       53  49  86 NW8        N/A
$$

MTZ011-013-016-021-035-040-045-047-050-051-261500-
NORTH CENTRAL MONTANA
CITY           SKY/WX    TMP DP  RH WIND       PRES   REMARKS
HAVRE          PTCLDY    57  46  67 W14       30.11R
LEWISTOWN      SUNNY     55  46  72 W3        30.18R
* CHESTER      N/A       52  46  80 NW2G7      N/A
* DENTON       N/A       56  47  72 S4         N/A
* JUDITH GAP   N/A       54  47  77 N/A        N/A
* LOMA         N/A       53  46  77 W6         N/A
$$

MTZ017>020-022>027-061-062-261500-
NORTHEAST MONTANA
CITY           SKY/WX    TMP DP  RH WIND       PRES   REMARKS
GLASGOW        CLOUDY    59  48  67 W15G26    29.99R
GLENDIVE       SUNNY     63  48  58 W25G32    30.01R
JORDAN         SUNNY     64  45  50 W20G25    30.06R
SIDNEY         SUNNY     63  48  58 W21G29    29.95S
WOLF POINT     PTCLDY    63  48  58 W20G29    29.97R
* BEAVER HILL  N/A       60  48  65 W18G27     N/A
* CIRCLE       N/A       59  50  72 W7G22      N/A
* LINDSAY DVD  N/A       58  48  70 W22G34     N/A
* NAVAJO       N/A       58  51  78 W23G29     N/A
$$

MTZ028>042-056>058-261500-
SOUTHCENTRAL AND SOUTHEAST MONTANA
CITY           SKY/WX    TMP DP  RH WIND       PRES   REMARKS
BAKER          SUNNY     63  46  54 W21       30.03S
BILLINGS       SUNNY     61  39  44 SW7       30.15R
LIVINGSTON     SUNNY     57  37  47 NW6       30.21R
MILES CITY     SUNNY     66  46  49 W16       30.06S
* LAUREL APT   SUNNY     61  43  52 N/A        N/A
* ROUNDUP APT  SUNNY     55  37  51 N/A        N/A
* ALZADA       N/A       60  46  60 W4         N/A
* HYSHAM       N/A       61  44  54 NW2        N/A
* LAME DEER    N/A       58  45  62 W1G6       N/A
* REED POINT   N/A       57  41  55 E2         N/A
* ROSCOE HILL  N/A       63  31  30 NE2        N/A
$$

REGIONAL REPORTS...DAKOTAS
CITY           SKY/WX    TMP DP  RH WIND       PRES   REMARKS
WILLISTON      SUNNY     63  52  68 W25G33    29.90R
DICKINSON      SUNNY     63  48  58 W22       29.95R
CROSBY         N/A       59  55  87 W23G32    29.82S
TIOGA          PTSUNNY   59  57  93 W24G38    29.88S
WATFORD CITY   SUNNY     59  50  72 W22G29    29.89S
BISMARCK       SUNNY     66  52  61 NW15G22   29.90R
GRAND FORKS    SUNNY     72  59  64 SW14      29.73F
FARGO          SUNNY     72  57  59 SW13      29.80R
BUFFALO SD     SUNNY     64  46  52 NW16      29.98R
RAPID CITY     SUNNY     66  46  49 N16       30.06R
$$

REGIONAL REPORTS...WYOMING/IDAHO/WASHINGTON
CITY           SKY/WX    TMP DP  RH WIND       PRES   REMARKS
GILLETTE       SUNNY     63  36  37 N7        30.15R
SHERIDAN       SUNNY     63  39  41 CALM      30.16R
YELLOWSTONE LA SUNNY     45  36  71 CALM      30.39R
SALMON         SUNNY     48  37  66 CALM      30.23R
MULLAN PASS    SUNNY     54  36  51 CALM      30.27S
SAND POINT     SUNNY     52  52 100 CALM      30.17R
SPOKANE        SUNNY     57  45  64 E5        30.14R

$$



USA.gov is the U.S. government's official web portal to all federal, state and local government web resources and services.